Regional Weather Roundup
Issued by NWS Cleveland, OH

Home | Current Version | Previous Version | Text Only | Print | Product List | Glossary Off
Versions: 1 2 3 4 5 6 7 8 9 10 11 12 13 14 15 16 17 18 19 20 21 22 23 24 25 26 27 28 29 30 31 32 33 34 35 36 37 38 39 40 41 42 43 44 45 46 47 48 49 50

000
ASUS41 KCLE 272012
RWRCLE
OHIO REGIONAL WEATHER ROUNDUP
NATIONAL WEATHER SERVICE WILMINGTON, OH
400 PM EDT FRI MAY 27 2016

NOTE: "FAIR" INDICATES FEW OR NO CLOUDS BELOW 12,000 FEET WITH NO
SIGNIFICANT WEATHER AND/OR OBSTRUCTIONS TO VISIBILITY.

OHZ001>008-015>018-024>027-034-035-043-044-272100-
   NORTHWEST OHIO

CITY           SKY/WX    TMP DP  RH WIND       PRES   REMARKS
DEFIANCE       FAIR      86  62  44 S10       29.96F
FINDLAY        FAIR      87  59  38 SW7       29.97F
TOLEDO EXPRESS FAIR      85  63  47 W12       29.97F
TOLEDO EXEC    FAIR      86  62  44 W6        29.98F
LIMA           FAIR      87  62  43 SW9       29.98F
$$

OHZ009>014-019>023-028>033-038-089-272100-
   NORTHEAST OHIO

CITY           SKY/WX    TMP DP  RH WIND       PRES   REMARKS
CLE-HOPKINS    PTSUNNY   86  59  39 SW9       30.02F
CLE-LAKEFRONT  FAIR      74  64  71 NE7       30.00F
CUY CO. ARPT   PTSUNNY   84  66  54 N8        30.02F
LORAIN-ELYRIA  FAIR      85  59  41 SW9       30.00F
ASHTABULA      FAIR      82  64  54 NW7       30.03F
AKRON-CANTON   PTSUNNY   85  63  47 SW14      30.03F
WOOSTER        PTSUNNY   84  60  44 SW5       30.03F
MANSFIELD      FAIR      85  62  46 SW7       30.03F
YOUNGSTOWN     PTSUNNY   84  60  44 SW7G18    30.04F
$$

OHZ042-051>053-060>062-070>072-077>081-272100-
  SOUTHWEST OHIO

CITY           SKY/WX    TMP DP  RH WIND       PRES   REMARKS
CINC-COVINGTON FAIR      84  64  50 S13G18    30.01F
CINC-LUNKEN    FAIR      85  67  54 S14G20    30.00F
HAMILTON       FAIR      87  63  44 SW10G18   30.00F
DAYTON         FAIR      86  62  44 SW13      30.01F
WRIGHT-PAT AFB PTSUNNY   87  63  45 S10       29.99F
DAYTON GENERAL FAIR      86  63  45 SW10      30.00F
WILMINGTON     FAIR      85  64  49 SW13      30.02F
$$

OHZ036-037-039>041-045>050-054>059-063>069-073>076-082>088-272100-
  CENTRAL AND SOUTHEAST OHIO

CITY           SKY/WX    TMP DP  RH WIND       PRES   REMARKS
COLUMBUS       PTSUNNY   87  61  41 SW9       30.00F
OSU AIRPORT    NOT AVBL
BOLTON FIELD   PTSUNNY   86  64  48 SW13      30.01F
RICKENBACK AFB FAIR      87  63  44 SW14      30.00F
NEWARK         FAIR      88  62  41 SW5       30.01F
MARION         FAIR      86  61  42 SW8       30.00F
LANCASTER      FAIR      86  63  45 SW10G16   30.02F
ZANESVILLE     FAIR      89  64  43 SW8       30.03F HX  90
NEW PHILLY     FAIR      88  62  41 MISG      30.03F
$$



USA.gov is the U.S. government's official web portal to all federal, state and local government web resources and services.